Alma, GA

3:36 AM EDT on October 16, 2019 (GMT -0400)
Bacon County

Weather History for KAMG - September, 2019

Change the Weather History Date:

Sunday, September 15, 2019

  Actual Average Record
Temperature  
Mean Temperature 81 °F 77 °F  
Max Temperature 91 °F 87 °F 99 °F (1980)
Min Temperature 71 °F 68 °F 55 °F (1967)
Degree Days  
Heating Degree Days 0 0  
Month to date heating degree days 0 0  
Since 1 July heating degree days 0 0  
Cooling Degree Days 16 12  
Month to date cooling degree days 246 206  
Year to date cooling degree days 2515 2113  
Growing Degree Days 31 (Base 50)    
Moisture  
Dew Point 71 °F    
Average Humidity 75    
Maximum Humidity 100    
Minimum Humidity 50    
Precipitation  
Precipitation 0.00 in 0.12 in 1.20 in (1954)
Month to date precipitation 0.20 1.97  
Year to date precipitation 25.60 36.18  
Snow  
Snow 0.00 in 0.00 in 0.00 in ()
Month to date snowfall 0.0 0.0  
Since 1 July snowfall 0.0 0.0  
Since 1 September snowfall 0.0 0.0  
Snow Depth 0.00 in    
Sea Level Pressure  
Sea Level Pressure 30.03 in    
Wind  
Wind Speed 4 mph (NE)    
Max Wind Speed 10 mph    
Max Gust Speed 17 mph    
Visibility 9 miles    
Events      
T = Trace of Precipitation, MM = Missing Value Source: NWS Daily Summary

Daily Weather History Graph

Daily Weather History Graph

Search for Another Location

Airport or City:

Astronomy

Sep. 15, 2019 Rise Set
Actual Time 7:13 AM EDT 7:36 PM EDT
Civil Twilight 6:49 AM EDT 8:00 PM EDT
Nautical Twilight 6:21 AM EDT 8:28 PM EDT
Astronomical Twilight 5:52 AM EDT 8:57 PM EDT
Moon 8:46 PM EDT (9/15) 8:21 AM EDT (9/15)
Length of Visible Light 13h 10m
Length of Day
12h 22m
Full, 98% of the Moon is Illuminated
Sep 15
Full
Sep 21
Last Quarter
Sep 28
New
Oct 5
First Quarter
Oct 13
Full

Hourly Weather History & Observations

Time (EDT) Temp. Heat Index Dew Point Humidity Pressure Visibility Wind Dir Wind Speed Gust Speed Precip Events Conditions
12:53 AM 73.0 °F - 71.1 °F 93% 30.08 in 9.0 mi Variable 3.5 mph - N/A   Clear
1:53 AM 73.0 °F - 71.1 °F 93% 30.07 in 8.0 mi Variable 3.5 mph - N/A   Clear
2:53 AM 72.0 °F - 71.1 °F 97% 30.05 in 8.0 mi Calm Calm - N/A   Clear
3:20 AM 72.0 °F - 71.1 °F 97% 30.05 in 7.0 mi North 3.5 mph - N/A   Partly Cloudy
3:41 AM 72.0 °F - 71.1 °F 97% 30.06 in 7.0 mi Variable 3.5 mph - N/A   Mostly Cloudy
3:53 AM 72.0 °F - 71.1 °F 97% 30.05 in 7.0 mi Variable 3.5 mph - N/A   Overcast
4:53 AM 73.0 °F - 72.0 °F 96% 30.04 in 8.0 mi North 4.6 mph - N/A   Overcast
5:53 AM 73.0 °F - 72.0 °F 96% 30.06 in 8.0 mi Variable 3.5 mph - N/A   Overcast
6:53 AM 73.9 °F - 72.0 °F 93% 30.07 in 9.0 mi Variable 3.5 mph - N/A   Overcast
7:53 AM 73.0 °F - 71.1 °F 93% 30.08 in 10.0 mi Calm Calm - N/A   Overcast
8:53 AM 75.9 °F - 71.1 °F 85% 30.08 in 10.0 mi Variable 4.6 mph - N/A   Mostly Cloudy
9:03 AM 77.0 °F - 71.1 °F 82% 30.09 in 10.0 mi Variable 4.6 mph - N/A   Partly Cloudy
9:53 AM 80.1 °F 83.8 °F 72.0 °F 76% 30.07 in 10.0 mi Variable 5.8 mph - N/A   Clear
10:53 AM 81.0 °F 85.2 °F 72.0 °F 74% 30.07 in 10.0 mi Variable 4.6 mph - N/A   Scattered Clouds
11:53 AM 84.9 °F 90.1 °F 71.1 °F 63% 30.06 in 10.0 mi NE 8.1 mph - N/A   Partly Cloudy
12:53 PM 87.1 °F 92.8 °F 71.1 °F 59% 30.04 in 10.0 mi Variable 4.6 mph - N/A   Scattered Clouds
1:53 PM 87.1 °F 91.3 °F 69.1 °F 55% 30.02 in 10.0 mi Variable 4.6 mph - N/A   Mostly Cloudy
2:53 PM 88.0 °F 92.9 °F 70.0 °F 55% 30.00 in 10.0 mi ENE 4.6 mph - N/A   Scattered Clouds
3:53 PM 89.1 °F 92.9 °F 68.0 °F 50% 29.98 in 10.0 mi ENE 9.2 mph - N/A   Scattered Clouds
4:53 PM 90.0 °F 93.6 °F 68.0 °F 48% 29.97 in 10.0 mi Variable 6.9 mph - N/A   Partly Cloudy
5:53 PM 89.1 °F 92.9 °F 68.0 °F 50% 29.97 in 10.0 mi Variable 6.9 mph - N/A   Partly Cloudy
6:53 PM 87.1 °F 89.9 °F 66.9 °F 51% 29.98 in 10.0 mi Variable 3.5 mph - N/A   Clear
7:53 PM 79.0 °F - 69.1 °F 72% 29.98 in 10.0 mi Calm Calm - N/A   Clear
8:53 PM 77.0 °F - 70.0 °F 79% 29.99 in 10.0 mi ESE 3.5 mph - N/A   Clear
9:53 PM 75.0 °F - 71.1 °F 87% 30.01 in 10.0 mi Calm Calm - N/A   Clear
10:53 PM 73.0 °F - 71.1 °F 93% 30.01 in 10.0 mi Calm Calm - N/A   Clear
11:53 PM 72.0 °F - 71.1 °F 97% 30.01 in 10.0 mi Calm Calm - N/A   Clear